Year,Month,Day,Hour,Minute,Value (Times are PST for temperature in C)
2013,09,10,12,26,21.90
2013,09,10,12,27,21.90
2013,09,10,12,28,21.90
2013,09,10,12,31,22.00
2013,09,10,12,32,22.00
2013,09,10,12,33,22.10
2013,09,10,12,34,22.10
2013,09,10,12,35,22.10
2013,09,10,12,36,22.10
2013,09,10,12,37,22.10
2013,09,10,12,38,22.10
2013,09,10,12,39,22.00
2013,09,10,12,40,22.00
2013,09,10,12,41,21.90
2013,09,10,12,42,21.90
2013,09,10,12,43,21.90
2013,09,10,12,44,21.90
2013,09,10,12,45,21.90
2013,09,10,12,46,21.90
2013,09,10,12,47,22.00
2013,09,10,12,48,22.10
2013,09,10,12,49,22.10
2013,09,10,12,50,22.10
2013,09,10,12,51,22.10
2013,09,10,12,52,22.10
2013,09,10,12,53,22.10
2013,09,10,12,54,22.10
2013,09,10,12,55,22.10
2013,09,10,12,56,22.20
2013,09,10,12,57,22.30
2013,09,10,12,58,22.30
2013,09,10,12,59,22.30
2013,09,10,13,00,22.30
2013,09,10,13,01,22.30
2013,09,10,13,02,22.30
2013,09,10,13,03,22.30
2013,09,10,13,04,22.30
2013,09,10,13,05,22.30
2013,09,10,13,06,22.30
2013,09,10,13,07,22.50
2013,09,10,13,08,22.60
2013,09,10,13,09,22.60
2013,09,10,13,10,22.60
2013,09,10,13,11,22.70
2013,09,10,13,12,22.70
2013,09,10,13,13,22.60
2013,09,10,13,14,22.70
2013,09,10,13,15,22.70
2013,09,10,13,16,22.60
2013,09,10,13,17,22.60
2013,09,10,13,18,22.70
2013,09,10,13,19,22.80
2013,09,10,13,20,22.90
2013,09,10,13,21,22.90
2013,09,10,13,22,22.90
2013,09,10,13,23,22.90
2013,09,10,13,24,22.90
2013,09,10,13,25,23.00
2013,09,10,13,26,23.10
2013,09,10,13,27,23.10
2013,09,10,13,28,23.10
2013,09,10,13,29,23.10
2013,09,10,13,30,23.10
2013,09,10,13,31,23.00
2013,09,10,13,32,22.90
2013,09,10,13,33,22.90
2013,09,10,13,34,22.90
2013,09,10,13,35,23.00
2013,09,10,13,36,23.10
2013,09,10,13,37,23.10
2013,09,10,13,38,23.10
2013,09,10,13,39,23.20
2013,09,10,13,40,23.30
2013,09,10,13,41,23.30
2013,09,10,13,42,23.30
2013,09,10,13,43,23.30
2013,09,10,13,44,23.30
2013,09,10,13,45,23.20
2013,09,10,13,46,23.20
2013,09,10,13,47,23.20
2013,09,10,13,48,23.20
2013,09,10,13,49,23.10
2013,09,10,13,50,23.10
2013,09,10,13,51,23.10
2013,09,10,13,52,23.00
2013,09,10,13,53,22.90
2013,09,10,13,54,23.10
2013,09,10,13,55,23.30
2013,09,10,13,56,23.40
2013,09,10,13,57,23.50
2013,09,10,13,58,23.50
2013,09,10,13,59,23.30
2013,09,10,14,00,23.30
2013,09,10,14,01,23.30
2013,09,10,14,02,23.30
2013,09,10,14,03,23.40
2013,09,10,14,04,23.40
2013,09,10,14,05,23.50
2013,09,10,14,06,23.60
2013,09,10,14,07,23.70
2013,09,10,14,08,23.70
2013,09,10,14,09,23.60
2013,09,10,14,10,23.60
2013,09,10,14,11,23.70
2013,09,10,14,12,23.70
2013,09,10,14,13,23.70
2013,09,10,14,14,23.70
2013,09,10,14,15,23.70
2013,09,10,14,16,23.60
2013,09,10,14,17,23.60
2013,09,10,14,18,23.50
2013,09,10,14,19,23.40
2013,09,10,14,20,23.30
2013,09,10,14,21,23.30
2013,09,10,14,22,23.30
2013,09,10,14,23,23.40
2013,09,10,14,24,23.50
2013,09,10,14,25,23.60
2013,09,10,14,26,23.70
2013,09,10,14,27,23.60
2013,09,10,14,28,23.60
2013,09,10,14,29,23.60
2013,09,10,14,30,23.60
2013,09,10,14,31,23.70
2013,09,10,14,32,23.70
2013,09,10,14,33,23.70
2013,09,10,14,34,23.70
2013,09,10,14,35,23.60
2013,09,10,14,36,23.60
2013,09,10,14,37,23.60
2013,09,10,14,38,23.60
2013,09,10,14,39,23.70
2013,09,10,14,40,23.70
2013,09,10,14,41,23.70
2013,09,10,14,42,23.70
2013,09,10,14,43,23.70
2013,09,10,14,44,23.80
2013,09,10,14,45,23.70
2013,09,10,14,46,23.70
2013,09,10,14,47,23.70
2013,09,10,14,48,23.70
2013,09,10,14,49,23.70
2013,09,10,14,50,23.70
2013,09,10,14,51,23.70
2013,09,10,14,52,23.70
2013,09,10,14,53,23.70
2013,09,10,14,54,23.70
2013,09,10,14,55,23.70
2013,09,10,14,56,23.80
2013,09,10,14,57,23.90
2013,09,10,14,58,23.90
2013,09,10,14,59,24.00
2013,09,10,15,00,24.00
2013,09,10,15,01,24.00
2013,09,10,15,02,24.00
2013,09,10,15,03,24.00
2013,09,10,15,04,24.10
2013,09,10,15,05,24.10
2013,09,10,15,06,24.10
2013,09,10,15,07,24.10
2013,09,10,15,08,24.10
2013,09,10,15,09,24.10
2013,09,10,15,10,24.10
2013,09,10,15,11,24.10
2013,09,10,15,12,24.00
2013,09,10,15,13,23.90
2013,09,10,15,14,23.90
2013,09,10,15,15,24.10
2013,09,10,15,16,24.10
2013,09,10,15,17,24.10
2013,09,10,15,18,24.20
2013,09,10,15,19,24.20
2013,09,10,15,20,24.20
2013,09,10,15,21,24.20
2013,09,10,15,22,24.20
2013,09,10,15,23,24.20
2013,09,10,15,24,24.20
2013,09,10,15,25,24.20
2013,09,10,15,26,24.20
2013,09,10,15,27,24.20
2013,09,10,15,28,24.20
2013,09,10,15,29,24.20
2013,09,10,15,30,24.20
2013,09,10,15,31,24.20
2013,09,10,15,32,24.10
2013,09,10,15,33,24.20
2013,09,10,15,34,24.20
2013,09,10,15,35,24.20
2013,09,10,15,36,24.30
2013,09,10,15,37,24.40
2013,09,10,15,38,24.50
2013,09,10,15,39,24.50
2013,09,10,15,40,24.50
2013,09,10,15,41,24.50
2013,09,10,15,42,24.40
2013,09,10,15,43,24.40
2013,09,10,15,44,24.30
2013,09,10,15,45,24.20
2013,09,10,15,46,24.30
2013,09,10,15,47,24.30
2013,09,10,15,48,24.30
2013,09,10,15,49,24.40
2013,09,10,15,50,24.50
2013,09,10,15,51,24.50
2013,09,10,15,52,24.50
2013,09,10,15,53,24.50
2013,09,10,15,54,24.40
2013,09,10,15,55,24.40
2013,09,10,15,56,24.40
2013,09,10,15,57,24.40
2013,09,10,15,58,24.40
2013,09,10,15,59,24.40
2013,09,10,16,00,24.40
2013,09,10,16,01,24.50
2013,09,10,16,02,24.60
2013,09,10,16,03,24.60
2013,09,10,16,04,24.60
2013,09,10,16,05,24.50
2013,09,10,16,06,24.50
2013,09,10,16,07,24.50
2013,09,10,16,08,24.50
2013,09,10,16,09,24.50
2013,09,10,16,10,24.50
2013,09,10,16,11,24.50
2013,09,10,16,12,24.40
2013,09,10,16,13,24.30
2013,09,10,16,14,24.30
2013,09,10,16,15,24.20
2013,09,10,16,16,24.20
2013,09,10,16,17,24.20
2013,09,10,16,18,24.10
2013,09,10,16,19,24.10
2013,09,10,16,20,24.10
2013,09,10,16,21,24.10
2013,09,10,16,22,24.10
2013,09,10,16,23,24.10
2013,09,10,16,24,24.10
2013,09,10,16,25,24.10
2013,09,10,16,26,24.10
2013,09,10,16,27,24.20
2013,09,10,16,28,24.30
2013,09,10,16,29,24.30
2013,09,10,16,30,24.30
2013,09,10,16,31,24.40
2013,09,10,16,32,24.40
2013,09,10,16,33,24.60
2013,09,10,16,34,24.60
2013,09,10,16,35,24.60
2013,09,10,16,36,24.60
2013,09,10,16,37,24.50
2013,09,10,16,38,24.50
2013,09,10,16,39,24.50
2013,09,10,16,40,24.50
2013,09,10,16,41,24.40
2013,09,10,16,42,24.50
2013,09,10,16,43,24.50
2013,09,10,16,44,24.50
2013,09,10,16,45,24.50
2013,09,10,16,46,24.50
2013,09,10,16,47,24.50
2013,09,10,16,48,24.50
2013,09,10,16,49,24.50
2013,09,10,16,50,24.50
2013,09,10,16,51,24.50
2013,09,10,16,52,24.60
2013,09,10,16,53,24.60
2013,09,10,16,54,24.60
2013,09,10,16,55,24.60
2013,09,10,16,56,24.60
2013,09,10,16,57,24.60
2013,09,10,16,58,24.60
2013,09,10,16,59,24.60
2013,09,10,17,00,24.60
2013,09,10,17,01,24.50
2013,09,10,17,02,24.50
2013,09,10,17,03,24.50
2013,09,10,17,04,24.50
2013,09,10,17,05,24.60
2013,09,10,17,06,24.60
2013,09,10,17,07,24.60
2013,09,10,17,08,24.60
2013,09,10,17,09,24.60
2013,09,10,17,10,24.60
2013,09,10,17,11,24.60
2013,09,10,17,12,24.60
2013,09,10,17,13,24.40
2013,09,10,17,14,24.30
2013,09,10,17,15,24.30
2013,09,10,17,16,24.30
2013,09,10,17,17,24.40
2013,09,10,17,18,24.40
2013,09,10,17,19,24.30
2013,09,10,17,20,24.40
2013,09,10,17,21,24.40
2013,09,10,17,22,24.40
2013,09,10,17,23,24.40
2013,09,10,17,24,24.30
2013,09,10,17,25,24.30
2013,09,10,17,26,24.30
2013,09,10,17,27,24.30
2013,09,10,17,28,24.20
2013,09,10,17,29,24.20
2013,09,10,17,30,24.20
2013,09,10,17,31,24.20
2013,09,10,17,32,24.30
2013,09,10,17,33,24.30
2013,09,10,17,34,24.30
2013,09,10,17,35,24.30
2013,09,10,17,36,24.30
2013,09,10,17,37,24.30
2013,09,10,17,38,24.30
2013,09,10,17,39,24.20
2013,09,10,17,40,24.10
2013,09,10,17,41,24.10
2013,09,10,17,42,24.00
2013,09,10,17,43,23.80
2013,09,10,17,44,23.50
2013,09,10,17,45,23.00
2013,09,10,17,46,22.40
2013,09,10,17,47,21.70
2013,09,10,17,48,21.20
2013,09,10,17,49,20.90
2013,09,10,17,50,20.70
2013,09,10,17,51,20.50
2013,09,10,17,52,20.40
2013,09,10,17,53,20.30
2013,09,10,17,54,20.20
2013,09,10,17,55,20.20
2013,09,10,17,56,20.20
2013,09,10,17,57,20.20
2013,09,10,17,58,20.20
2013,09,10,17,59,20.10
2013,09,10,18,00,20.10
2013,09,10,18,01,20.10
2013,09,10,18,02,20.00
2013,09,10,18,03,19.90
2013,09,10,18,04,19.90
2013,09,10,18,05,19.90
2013,09,10,18,06,19.90
2013,09,10,18,07,20.00
2013,09,10,18,08,19.90
2013,09,10,18,09,20.00
2013,09,10,18,10,20.00
2013,09,10,18,11,19.90
2013,09,10,18,12,19.90
2013,09,10,18,13,19.90
2013,09,10,18,14,19.90
2013,09,10,18,15,19.90
2013,09,10,18,16,19.90
2013,09,10,18,17,19.80
2013,09,10,18,18,19.80
2013,09,10,18,19,19.80
2013,09,10,18,20,19.80
2013,09,10,18,21,19.80
2013,09,10,18,22,19.80
2013,09,10,18,23,19.80
2013,09,10,18,24,19.80
2013,09,10,18,25,19.90
2013,09,10,18,26,19.90
2013,09,10,18,27,19.90
2013,09,10,18,28,19.90
2013,09,10,18,29,19.90
2013,09,10,18,30,19.90
2013,09,10,18,31,19.90
2013,09,10,18,32,19.90
2013,09,10,18,33,19.90
2013,09,10,18,34,19.90
2013,09,10,18,35,19.90
2013,09,10,18,36,19.90
2013,09,10,18,37,19.90
2013,09,10,18,38,19.90
2013,09,10,18,39,19.90
2013,09,10,18,40,19.90
2013,09,10,18,41,19.90
2013,09,10,18,42,19.90
2013,09,10,18,43,19.90
2013,09,10,18,44,19.80
2013,09,10,18,45,19.80
2013,09,10,18,46,19.70
2013,09,10,18,47,19.70
2013,09,10,18,48,19.70
2013,09,10,18,49,19.80
2013,09,10,18,50,19.80
2013,09,10,18,51,19.70
2013,09,10,18,52,19.70
2013,09,10,18,53,19.60
2013,09,10,18,54,19.60
2013,09,10,18,55,19.50
2013,09,10,18,56,19.50
2013,09,10,18,57,19.40
2013,09,10,18,58,19.30
2013,09,10,18,59,19.30
2013,09,10,19,00,19.20
2013,09,10,19,01,19.10
2013,09,10,19,02,19.10
2013,09,10,19,03,19.10
2013,09,10,19,04,19.10
2013,09,10,19,05,19.00
2013,09,10,19,06,18.90
2013,09,10,19,07,18.90
2013,09,10,19,08,18.80
2013,09,10,19,09,18.80
2013,09,10,19,10,18.80
2013,09,10,19,11,18.70
2013,09,10,19,12,18.70
2013,09,10,19,13,18.70
2013,09,10,19,14,18.70
2013,09,10,19,15,18.70
2013,09,10,19,16,18.70
2013,09,10,19,17,18.70
2013,09,10,19,18,18.70
2013,09,10,19,19,18.60
2013,09,10,19,20,18.60
2013,09,10,19,21,18.60
2013,09,10,19,22,18.60
2013,09,10,19,23,18.60
2013,09,10,19,24,18.50
2013,09,10,19,25,18.50
2013,09,10,19,26,18.40
2013,09,10,19,27,18.40
2013,09,10,19,28,18.40
2013,09,10,19,29,18.30
2013,09,10,19,30,18.30
2013,09,10,19,31,18.20
2013,09,10,19,32,18.20
2013,09,10,19,33,18.20
2013,09,10,19,34,18.10
2013,09,10,19,35,18.10
2013,09,10,19,36,18.10
2013,09,10,19,37,18.00
2013,09,10,19,38,17.90
2013,09,10,19,39,17.90
2013,09,10,19,40,17.90
2013,09,10,19,41,17.90
2013,09,10,19,42,17.90
2013,09,10,19,43,17.90
2013,09,10,19,44,17.90
2013,09,10,19,45,17.90
2013,09,10,19,46,17.90
2013,09,10,19,47,17.90
2013,09,10,19,48,17.90
2013,09,10,19,49,17.90
2013,09,10,19,50,17.90
2013,09,10,19,51,17.90
2013,09,10,19,52,17.90
2013,09,10,19,53,17.80
2013,09,10,19,54,17.80
2013,09,10,19,55,17.80
2013,09,10,19,56,17.80
2013,09,10,19,57,17.80
2013,09,10,19,58,17.80
2013,09,10,19,59,17.80
2013,09,10,20,00,17.80
2013,09,10,20,01,17.80
2013,09,10,20,02,17.80
2013,09,10,20,03,17.80
2013,09,10,20,04,17.80
2013,09,10,20,05,17.80
2013,09,10,20,06,17.80
2013,09,10,20,07,17.80
2013,09,10,20,08,17.80
2013,09,10,20,09,17.80
2013,09,10,20,10,17.80
2013,09,10,20,11,17.80
2013,09,10,20,12,17.80
2013,09,10,20,13,17.80
2013,09,10,20,14,17.80
2013,09,10,20,15,17.90
2013,09,10,20,16,17.90
2013,09,10,20,17,17.90
2013,09,10,20,18,17.90
2013,09,10,20,19,17.90
2013,09,10,20,20,17.90
2013,09,10,20,21,17.90
2013,09,10,20,22,17.90
2013,09,10,20,23,17.90
2013,09,10,20,24,17.90
2013,09,10,20,25,17.90
2013,09,10,20,26,17.90
2013,09,10,20,27,17.90
2013,09,10,20,28,17.90
2013,09,10,20,29,17.90
2013,09,10,20,30,17.90
2013,09,10,20,31,17.90
2013,09,10,20,32,17.90
2013,09,10,20,33,17.90
2013,09,10,20,34,17.90
2013,09,10,20,35,17.90
2013,09,10,20,36,17.90
2013,09,10,20,37,17.90
2013,09,10,20,38,17.90
2013,09,10,20,39,17.90
2013,09,10,20,40,17.90
2013,09,10,20,41,17.90
2013,09,10,20,42,17.90
2013,09,10,20,43,17.90
2013,09,10,20,44,17.90
2013,09,10,20,45,17.80
2013,09,10,20,46,17.80
2013,09,10,20,47,17.80
2013,09,10,20,48,17.80
2013,09,10,20,49,17.70
2013,09,10,20,50,17.70
2013,09,10,20,51,17.70
2013,09,10,20,52,17.60
2013,09,10,20,53,17.60
2013,09,10,20,54,17.60
2013,09,10,20,55,17.60
2013,09,10,20,56,17.60
2013,09,10,20,57,17.60
2013,09,10,20,58,17.60
2013,09,10,20,59,17.60
2013,09,10,21,00,17.60
2013,09,10,21,01,17.60
2013,09,10,21,02,17.60
2013,09,10,21,03,17.60
2013,09,10,21,04,17.60
2013,09,10,21,05,17.60
2013,09,10,21,06,17.50
2013,09,10,21,07,17.50
2013,09,10,21,08,17.50
2013,09,10,21,09,17.50
2013,09,10,21,10,17.50
2013,09,10,21,11,17.50
2013,09,10,21,12,17.40
2013,09,10,21,13,17.40
2013,09,10,21,14,17.40
2013,09,10,21,15,17.40
2013,09,10,21,16,17.30
2013,09,10,21,17,17.30
2013,09,10,21,18,17.30
2013,09,10,21,19,17.30
2013,09,10,21,20,17.30
2013,09,10,21,21,17.30
2013,09,10,21,22,17.30
2013,09,10,21,23,17.30
2013,09,10,21,24,17.30
2013,09,10,21,25,17.30
2013,09,10,21,26,17.30
2013,09,10,21,27,17.30
2013,09,10,21,28,17.30
2013,09,10,21,29,17.30
2013,09,10,21,30,17.20
2013,09,10,21,31,17.20
2013,09,10,21,32,17.20
2013,09,10,21,33,17.20
2013,09,10,21,34,17.20
2013,09,10,21,35,17.20
2013,09,10,21,36,17.20
2013,09,10,21,37,17.10
2013,09,10,21,38,17.10
2013,09,10,21,39,17.10
2013,09,10,21,40,17.10
2013,09,10,21,41,17.10
2013,09,10,21,42,17.10
2013,09,10,21,43,17.10
2013,09,10,21,44,17.00
2013,09,10,21,45,17.00
2013,09,10,21,46,17.00
2013,09,10,21,47,17.00
2013,09,10,21,48,17.00
2013,09,10,21,49,17.00
2013,09,10,21,50,17.00
2013,09,10,21,51,17.00
2013,09,10,21,52,17.00
2013,09,10,21,53,17.00
2013,09,10,21,54,16.90
2013,09,10,21,55,16.90
2013,09,10,21,56,16.90
2013,09,10,21,57,16.90
2013,09,10,21,58,16.90
2013,09,10,21,59,16.90
2013,09,10,22,00,16.90
2013,09,10,22,01,16.90
2013,09,10,22,02,16.90
2013,09,10,22,03,16.90
2013,09,10,22,04,16.90
2013,09,10,22,05,16.80
2013,09,10,22,06,16.80
2013,09,10,22,07,16.80
2013,09,10,22,08,16.80
2013,09,10,22,09,16.80
2013,09,10,22,10,16.80
2013,09,10,22,11,16.70
2013,09,10,22,12,16.70
2013,09,10,22,13,16.70
2013,09,10,22,14,16.70
2013,09,10,22,15,16.70
2013,09,10,22,16,16.70
2013,09,10,22,17,16.70
2013,09,10,22,18,16.70
2013,09,10,22,19,16.70
2013,09,10,22,20,16.70
2013,09,10,22,21,16.70
2013,09,10,22,22,16.70
2013,09,10,22,23,16.70
2013,09,10,22,24,16.70
2013,09,10,22,25,16.70
2013,09,10,22,26,16.70
2013,09,10,22,27,16.70
2013,09,10,22,28,16.70
2013,09,10,22,29,16.70
2013,09,10,22,30,16.70
2013,09,10,22,31,16.70
2013,09,10,22,32,16.60
2013,09,10,22,33,16.60
2013,09,10,22,34,16.60
2013,09,10,22,35,16.60
2013,09,10,22,36,16.60
2013,09,10,22,37,16.60
2013,09,10,22,38,16.60
2013,09,10,22,39,16.60
2013,09,10,22,40,16.60
2013,09,10,22,41,16.60
2013,09,10,22,42,16.60
2013,09,10,22,43,16.60
2013,09,10,22,44,16.60
2013,09,10,22,45,16.60
2013,09,10,22,46,16.60
2013,09,10,22,47,16.50
2013,09,10,22,48,16.40
2013,09,10,22,49,16.40
2013,09,10,22,50,16.40
2013,09,10,22,51,16.40
2013,09,10,22,52,16.40
2013,09,10,22,53,16.40
2013,09,10,22,54,16.40
2013,09,10,22,55,16.40
2013,09,10,22,56,16.40
2013,09,10,22,57,16.40
2013,09,10,22,58,16.40
2013,09,10,22,59,16.40
2013,09,10,23,00,16.40
2013,09,10,23,01,16.40
2013,09,10,23,02,16.40
2013,09,10,23,03,16.40
2013,09,10,23,04,16.40
2013,09,10,23,05,16.40
2013,09,10,23,06,16.40
2013,09,10,23,07,16.40
2013,09,10,23,08,16.30
2013,09,10,23,09,16.30
2013,09,10,23,10,16.30
2013,09,10,23,11,16.30
2013,09,10,23,12,16.30
2013,09,10,23,13,16.30
2013,09,10,23,14,16.30
2013,09,10,23,15,16.30
2013,09,10,23,16,16.30
2013,09,10,23,17,16.20
2013,09,10,23,18,16.20
2013,09,10,23,19,16.20
2013,09,10,23,20,16.20
2013,09,10,23,21,16.20
2013,09,10,23,22,16.20
2013,09,10,23,23,16.20
2013,09,10,23,24,16.20
2013,09,10,23,25,16.20
2013,09,10,23,26,16.20
2013,09,10,23,27,16.20
2013,09,10,23,28,16.20
2013,09,10,23,29,16.20
2013,09,10,23,30,16.10
2013,09,10,23,31,16.10
2013,09,10,23,32,16.10
2013,09,10,23,33,16.10
2013,09,10,23,34,16.10
2013,09,10,23,35,16.10
2013,09,10,23,36,16.10
2013,09,10,23,37,16.10
2013,09,10,23,38,16.10
2013,09,10,23,39,16.10
2013,09,10,23,40,16.10
2013,09,10,23,41,16.10
2013,09,10,23,42,16.10
2013,09,10,23,43,16.10
2013,09,10,23,44,16.10
2013,09,10,23,45,16.10
2013,09,10,23,46,16.10
2013,09,10,23,47,16.10
2013,09,10,23,48,16.10
2013,09,10,23,49,16.10
2013,09,10,23,50,16.00
2013,09,10,23,51,15.90
2013,09,10,23,52,15.90
2013,09,10,23,53,15.90
2013,09,10,23,54,15.90
2013,09,10,23,55,15.90
2013,09,10,23,56,15.90
2013,09,10,23,57,15.80
2013,09,10,23,58,15.80
2013,09,10,23,59,15.80
